Location: Academy at Carrie F Thomas
(32.8490°N, 97.2053°W)
Time: 01:03:18
(UTC+00:00)

SKYMED 2 - Pass Details

Date: 08 December 2021
Orbit: 621 x 623 km, 97.9° (Epoch: 28 January)

Event Time Altitude Azimuth Distance (km) Brightness Sun altitude
Rises 12:23:53 0° 188° (S) 2,887 7.1 -11.5°
Reaches altitude 10° 12:26:14 10° 198° (SSW) 1,985 6.2 -11.0°
Maximum altitude 12:30:06 32° 262° (W) 1,073 4.3 -10.3°
Drops below altitude 10° 12:34:01 10° 326° (NW) 1,998 5.7 -9.5°
Enters shadow 12:35:18 - 333° (NNW) 2,481 6.2 -9.3°
